カタログに戻る

CZ-6A DEB

運用中SSO
NORAD 54625·DEBRIS·🇨🇳 China

打ち上げ Nov 11, 2022 から Taiyuan Satellite Launch Center

Loading…

次のパス (今後24時間)

TLE

最新Source: Space-Track

元期: Sep 14, 2026, 15:38 UTC

1 54625U 22151PB  26257.65177038  .00000164  00000-0  15106-3 0  9999
2 54625  98.9522 222.8554 0131997 212.6122 146.6836 13.91999805193767

AllMySatでCZ-6A DEBをリアルタイム追跡

Download on the App Store